Location: Bois de la Silve
(44.4667°N, 6.7833°E)
Time: 10:45:59
(UTC+00:00)

Cosmos 1515 - Pass Details

Date: 14 July 2020
Orbit: 507 x 515 km, 82.5° (Epoch: 05 August)

Event Time Altitude Azimuth Distance (km) Brightness Sun altitude
Rises 01:09:40 0° 348° (NNW) 2,638 8.2 -20.7°
Reaches altitude 10° 01:11:49 10° 346° (NNW) 1,748 7.1 -20.6°
Maximum altitude 01:15:37 65° 264° (W) 569 3.7 -20.3°
Enters shadow 01:15:51 63° 240° (WSW) 578 3.6 -20.3°
